Location: Isles
(48.9125°N, 2.8272°E)
Time: 11:09:33
(UTC+00:00)

Okean O Rocket - Pass Details

Date: 03 February 2023
Orbit: 620 x 643 km, 98.1° (Epoch: 30 March)

Event Time Altitude Azimuth Distance (km) Brightness Sun altitude
Rises 17:39:21 0° 124° (SE) 2,918 4.6 -8.6°
Reaches altitude 10° 17:41:58 10° 108° (ESE) 2,019 3.7 -9.0°
Maximum altitude 17:45:11 20° 61° (ENE) 1,463 2.9 -9.5°
Drops below altitude 10° 17:48:27 10° 14° (NNE) 2,041 4.0 -10.1°
Sets 17:51:07 0° 358° (N) 2,959 4.9 -10.5°
